This is the latest recevied weather packets stored in our database for station/object DF1GD-10. If no packets are shown the sender has not sent any weather packets the latest 10 day(s).
| Time | Temp. | Humidity | Pressure | Rain* | Wind** | Luminosity | Snow |
|---|---|---|---|---|---|---|---|
| 1788173696 | 20.56° C | 39% | 1017.8 hPa | - | - | - | - |
| 1788172796 | 20° C | 41% | 1017.5 hPa | - | - | - | - |
| 1788171895 | 20.56° C | 40% | 1017.6 hPa | - | - | - | - |
| 1788170995 | 18.89° C | 42% | 1017.5 hPa | - | - | - | - |
| 1788170095 | 20.56° C | 39% | 1017.6 hPa | - | - | - | - |
| 1788169194 | 18.89° C | 41% | 1017.5 hPa | - | - | - | - |
| 1788164560 | 17.22° C | 60% | 1017.4 hPa | - | - | - | - |
| 1788163653 | 16.67° C | 60% | 1017.3 hPa | - | - | - | - |
| 1788162753 | 16.67° C | 62% | 1017.2 hPa | - | - | - | - |
| 1788161853 | 16.11° C | 63% | 1017.2 hPa | - | - | - | - |
| 1788160952 | 16.11° C | 64% | 1017.3 hPa | - | - | - | - |
| 1788160052 | 16.11° C | 65% | 1017.1 hPa | - | - | - | - |
| 1788159152 | 16.11° C | 57% | 1017 hPa | - | - | - | - |
| 1788158252 | 15.56° C | 60% | 1017.1 hPa | - | - | - | - |
| 1788157352 | 15.56° C | 65% | 1017 hPa | - | - | - | - |
| 1788156452 | 15° C | 76% | 1016.8 hPa | - | - | - | - |
| 1788155552 | 15° C | 77% | 1016.7 hPa | - | - | - | - |
| 1788154652 | 14.44° C | 78% | 1016.7 hPa | - | - | - | - |
| 1788153751 | 14.44° C | 77% | 1016.5 hPa | - | - | - | - |
| 1788152850 | 14.44° C | 78% | 1016.4 hPa | - | - | - | - |
| 1788151950 | 14.44° C | 78% | 1016.2 hPa | - | - | - | - |
| 1788151050 | 14.44° C | 80% | 1016 hPa | - | - | - | - |
| 1788150150 | 14.44° C | 82% | 1016.1 hPa | - | - | - | - |
| 1788149250 | 14.44° C | 82% | 1015.9 hPa | - | - | - | - |
| 1788148350 | 14.44° C | 81% | 1015.9 hPa | - | - | - | - |
* Rain since midnight (hover to see other rain measurements)
** Current wind speed in m/s (hover to see current wind gust speed)